Location: New Plymouth
(39.0670°S, 174.0830°E)
Time: 09:16:06
(UTC+12:00)

ISS - Pass Details

Date: 22 May 2021
Orbit: 417 x 422 km, 51.6° (Epoch: 17 June)

Event Time Altitude Azimuth Distance (km) Brightness Sun altitude
Exits shadow 05:39:59 - 347° (NNW) 1,717 -0.7 -20.3°
Reaches altitude 10° 05:40:34 10° 351° (N) 1,513 -0.9 -20.2°
Maximum altitude 05:43:23 24° 48° (NE) 920 -1.4 -19.6°
Drops below altitude 10° 05:46:15 10° 104° (ESE) 1,528 0.1 -19.1°
Sets 05:48:36 0° 117° (ESE) 2,401 0.9 -18.6°
